CO3D 1

Last updated on Mon Feb 16 2026 00:02:32 GMT+0000 (Coordinated Universal Time)

1 64903U 25156E 26046.57990794 .00006631 00000+0 30904-3 0 9993 2 64903 97.4338 126.9169 0000544 183.2181 176.9051 15.20214854 31059
UTC large
Height (km)
Speed (km/s)
/
Latitude / Longitude
Inclination (degrees)
Orbital Period (minutes)
Azimuth
Elevation
Range (km)
Doppler Factor

Next 0 passes for location: London (51.5072 / 0.1276)

Sorry there are no passes over London.